Regional Weather Roundup
Issued by NWS Wakefield, VA

Home | Current Version | Previous Version | Graphics & Text | Print | Product List | Glossary On
Versions: 1 2 3 4 5 6 7 8 9 10 11 12 13 14 15 16 17 18 19 20 21 22 23 24 25 26 27 28 29 30 31 32 33 34 35 36 37 38 39 40 41 42 43 44 45 46 47 48 49 50
000
ASUS41 KAKQ 010615
RWRAKQ

REGIONAL WEATHER ROUNDUP
NATIONAL WEATHER SERVICE WAKEFIELD VA
200 AM EDT SUN MAY 01 2016

Note: "fair" indicates few or no clouds below 12,000 feet with no
significant weather and/or obstructions to visibility. * = Denotes
station may not report precipitation (e.g., rain,snow,etc.),
thunder or fog.

VAZ042-051-052>054-056-010700-
NORTHERN VIRGINIA

CITY           SKY/WX    TMP DP  RH WIND       PRES   REMARKS
WASH NATIONAL  LGT RAIN  54  51  90 SE10      30.18F
DULLES         LGT RAIN  52  51  97 S6        30.15F
FORT BELVOIR   LGT RAIN  53  51  93 SE6       30.16F
QUANTICO       LGT RAIN  55  51  86 S12       30.18F
FREDERICKSBRG* DRIZZLE   54  54 100 CALM      30.16F
STAFFORD*      DRIZZLE   52  50  95 CALM      30.20F
WARRENTON      DRIZZLE   53  48  84 SE3       30.16S
CULPEPER*      RAIN      53  53  99 CALM      30.17S
MANASSAS*      CLOUDY    54  54 100 S5        30.17F
LEESBURG*      LGT RAIN  54  54 100 S10       30.16S
WINCHESTER     DRIZZLE   52  50  93 SE7       30.11F
FRONT ROYAL*   CLOUDY    52  50  93 CALM      30.11S
LURAY*         RAIN      52  52 100 S5        30.12F
$$

VAZ048-049-060>072-079>083-010700-
CENTRAL AND SOUTH CENTRAL VIRGINIA

CITY           SKY/WX    TMP DP  RH WIND       PRES   REMARKS
RICHMOND       CLOUDY    53  50  89 SE3       30.15F
CHESTERFIELD*  CLOUDY    54  39  58 SE3       30.17F
PETERSBURG*    CLOUDY    55  51  86 E3        30.15F
HANOVER        CLOUDY    53  49  86 CALM      30.17F
TAPPAHANNOCK*  CLOUDY    54  52  94 CALM      30.18S
QUINTON*       CLOUDY    53  51  91 E5        30.15F
CHARLOTTSVILLE LGT RAIN  54  52  93 S5        30.15F FOG
GORDONSVILLE*  CLOUDY    53  53  99 CALM      30.15F
ORANGE*        LGT RAIN  54  54 100 CALM      30.17F
LOUISA*        LGT RAIN  55  55 100 CALM      30.15F
BUMPASS*       CLOUDY    53  52  96 CALM      30.16F
FARMVILLE*     HVY RAIN  55  55 100 N3        30.14S
CREWE*         CLOUDY    54  53  96 SE7       30.14F
FORT PICKETT*  NOT AVBL
CHASE CITY*    CLOUDY    55  53  94 CALM      30.13F
CLARKSVILLE*   CLOUDY    55  55 100 SE5       30.12F
SOUTH HILL*    CLOUDY    54  52  92 SE3       30.20S
LAWRENCEVILLE* CLOUDY    55  51  88 SE6       30.14F
EMPORIA*       CLOUDY    54  50  87 E7        30.15F
$$

VAZ088>098-010700-
SOUTHEAST VIRGINIA

CITY           SKY/WX    TMP DP  RH WIND       PRES   REMARKS
NORFOLK        FAIR      55  49  80 SE5       30.15F
VIRGINIA BEACH CLOUDY    58  50  75 E8        30.14F
NORFOLK NAVAL  CLOUDY    54  50  86 SE5       30.17F
WEST POINT*    CLOUDY    53  51  90 E5        30.16F
SALUDA*        CLOUDY    54  51  88 SE7       30.15F
NEWPORT NEWS   FAIR      54  50  86 E7        30.15F
LANGLEY AFB    FAIR      55  50  84 SE6       30.15F
FORT EUSTIS    FAIR      55  50  84 SE5       30.14F
WILLIAMSBURG*  FAIR      55  52  88 E6        30.16F
HR EXEC AP*    FAIR      54  48  82 SE3       30.18F
FRANKLIN*      CLOUDY    54  49  85 E5        30.16F
US460-WAKEFLD  FAIR      54  49  83 VRB3      30.15F
$$

VAZ020-022-025-037-045-010700-
WEST CENTRAL AND SOUTHWEST VIRGINIA

CITY           SKY/WX    TMP DP  RH WIND       PRES   REMARKS
STAUNTON*      RAIN      55  55 100 S6        30.15F
WAYNESBORO*    CLOUDY    52  51  97 MISG      30.13F
HOT SPRINGS VA LGT RAIN  48  48 100 S10G17    30.11F VSB 1/4
LYNCHBURG      LGT RAIN  53  53 100 SE5       30.14F
DANVILLE       CLOUDY    56  56 100 CALM      30.13F FOG
SOUTH BOSTON*  CLOUDY    55  54  94 CALM      30.14F
MARTINSVILLE   RAIN      53  52  98 CALM      30.15S
ROANOKE        LGT RAIN  54  53  97 SE5       30.15F
BLACKSBURG     RAIN      52  52  99 E3        30.17R
DUBLIN*        RAIN      54  54 100 NE5       30.14F
MARION*        RAIN      56  54  95 E6        30.14S
HILLSVILLE*    LGT RAIN  53  53 100 SE6       30.11F
RICHLANDS*     LGT RAIN  57  56  98 SE8       30.05F
WISE*          CLOUDY    59  59 100 S8        30.05F
ABINGDON*      DRIZZLE   60  59  98 E8        30.05F
$$

MDZ021>025-VAZ099-100-010700-
SOUTHERN MARYLAND AND THE DELMARVA PENINSULA

CITY           SKY/WX    TMP DP  RH WIND       PRES   REMARKS
PATUXENT RIVER CLOUDY    54  47  77 SE9       30.18F
BAY BRIDGE APT NOT AVBL
LEONARDTOWN    CLOUDY    52  46  82 E3        30.18F
DOVER          CLOUDY    51  48  90 S5        30.20F
GEORGETOWN     CLOUDY    49  46  90 CALM      30.20F
EASTON         CLOUDY   N/A N/A N/A SE3       30.22F
CAMBRIDGE      CLOUDY    48  45  87 CALM      30.19F
SALISBURY      CLOUDY    50  47  89 CALM      30.20F
OCEAN CITY     CLOUDY    51  47  86 E3        30.20F
WALLOPS ISLAND CLOUDY    52  46  80 E7        30.18F
ACCOMACK*      CLOUDY   N/A N/A N/A E5        30.16F
$$

NCZ012>017-030>032-010700-
NORTH CENTRAL AND EASTERN NORTH CAROLINA

CITY           SKY/WX    TMP DP  RH WIND       PRES   REMARKS
ROANOKE RAPIDS CLOUDY    55  52  88 E3        30.15F
RALEIGH        CLOUDY    60  55  83 SE7       30.13S
ELIZABETH CITY CLOUDY    56  52  86 E9        30.16F
AHOSKIE*       CLOUDY    54  50  87 E3        30.16F
EDENTON*       CLOUDY    56  56  98 NE3       30.16F
CURRITUCK*     CLOUDY    57  53  86 CALM      30.17F
KILL DEVIL HLS CLOUDY    55  54  94 E6        30.14F
MANTEO         NOT AVBL
CAPE HATTERAS  MOCLDY    59  55  87 NE8       30.13F
TARBORO*       CLOUDY    57  54  88 E5        30.16S
GOLDSBORO      CLOUDY    61  61 100 E10       30.11F
WASHINGTON     MOCLDY    55  53  92 E3        30.14F
GREENVILLE     CLOUDY    57  54  88 E5        30.16S
NEW BERN       CLOUDY    61  57  87 E5        30.15F
WILMINGTON     CLOUDY    65  61  87 E8        30.11F
$$

VAZ048-010700-
ELSEWHERE

CITY           SKY/WX    TMP DP  RH WIND       PRES   REMARKS
HARRISBURG PA  LGT RAIN  53  46  77 SE10      30.13F
BALTIMORE      LGT RAIN  51  45  79 SE6       30.17F
ANNAPOLIS      CLOUDY    53  44  71 MISG      30.18F
ANDREWS AFB    DRIZZLE   51  48  90 SE8       30.16F
PHILADELPHIA   LGT RAIN  51  37  58 CALM      30.21F
HENDERSON NC   CLOUDY    57  57 100 SE6       30.13F
GREENSBORO     LGT RAIN  58  58 100 SE6       30.10F FOG
ROCKY MOUNT    CLOUDY    57  53  86 VRB5      30.14F
$$

VAZ100-010700-
MARINE

STATION/POSITION TIME  TEMP    WIND        PRES    WAVE   SWELL
                       AIR SEA DIR/SP/G            HT/PER HT/PER
                 (UTC) (F)     (DEG/KT/KT) (MB)    (FT/S) (FT/S)
BRANDYWINE LGT   0500   50     140/  9/ 10 1023.2F
CAPE MAY NJ      0500   50 57  110/  4/  4 1022.9F
LEWES DE         0500   51 56  140/  3/  5 1023.1F
15NM E FENWICK I 0550   50 51              1022.6F   4/ 8
OCEAN-CITY-INLET 0500   51 55  130/  6/ 10 1022.2F
WACHAPREAGUE VA  0500   54 60  110/  6/  8 1022.4F
THOMAS POINT MD  0600   53 57  150/ 13/ 14 1023.1F
GOOSES REEF MD   0600   53 57  140/ 10/ 12 1022.9F   1/ 2
COVE POINT MD    0500   52     160/ 12/ 14 1023.1S
SOLOMONS ISLAND  0500   54 59  120/  9/ 12   N/A
BISHOPS HEAD MD  0500   53 58  120/ 10/ 12 1021.6F
PINEY POINT MD   0500          160/ 15/ 16   N/A
POTOMAC MD       0600   55 58  150/ 12/ 14 1020.8F   2/ 3
CAMBRIDGE MD     0500   51 60  130/  2/  3 1022.4R
LEWISETTA VA     0500   54 60  150/ 10/ 12 1021.6F
RAPPAHANNOCK LGT 0500          100/  9/ 10 1023.0F
STINGRAY PT      0600   55 60  130/ 14/ 16 1021.3F   2/ 3
YORK RVR RNG VA  0500   56     130/ 13/ 14 1021.4F
YORKTOWN VA      0500   56 62  130/ 10/ 12 1021.7F
JAMESTOWN VA     0600   56 65  110/ 10/ 14   N/A     1
DOMINION TERM VA 0500   56     120/ 10/ 11 1022.2F
KIPTOPEKE VA     0500      60  100/  8/  9   N/A
CHES BAY BRIDGE  0500   55 60   70/ 12/ 14 1021.8F
CAPE HENRY VA    0500   55      90/ 12/ 15   N/A
CHESAPEAKE LGHT  0500   54      80/ 13/ 14 1023.1R
WILLOUBY STN VA  0500   55     110/ 10/ 12 1023.1F
CAPE HENRY BUOY  0512      55                N/A     4/ 9   2/11
CAPE CHARLES BUO 0526      57                N/A     5/10   5/10
OFFSHORE WE BUOY 0521      54                N/A     5/10   5/10
64NM E OF VA BCH 0550   55 53   60/  4/  8 1021.3F   6/10   5/10
DUCK PIER NC     0500   55 67   70/ 15/ 17 1021.0F
44100 DUCK FRF   0524      54                N/A     5/10   2/11
44056 DUCK FRF   0511      59                N/A     5/11   2/11
OREGON INLET NC  0500   56 62   50/  9/ 13 1021.1F
HATTERAS NC      0500   61 68   50/  9/ 13 1020.5F
DIAMOND SHLS NC  0550   67 74   50/ 12/ 14 1019.8F   5/ 9   5/ 9
CAPE LOOKOUT NC  0600   64      50/ 11/ 12C1F1C2F2C3F3C4F4C5F5C6F6C7F7C8M1C9!


USA.gov is the U.S. government's official web portal to all federal, state and local government web resources and services.